|   |  | Asteroid 2000 UY33
					
					
					
					
						
					
					
						
							(Preview) 
						
							
								The 100 - 230 metre wide asteroid 2000 UY33 will make a close pass (58.0 lunar distances, 0.1490 AU), travelling at 13.08 km/second, to the Earth-Moon system on the 27th April, 2013 @ 22:05 UT ±00:01.  See more The Lunar Distance (LD), the distance between Earth and the Moon, equals 384,401 km, (or 0.0...  | Blobrana | 0 |  |  | 
		
			
			
				
				
					|   |   | Asteroid 2013 HT15
					
					
					
					
						
					
					
						
							(Preview) 
						
							
								Orbital elements:
2013 HT15                                           PHA, Earth MOID = 0.0267 AU
Epoch 2013 Apr. 18.0 TT = JDT 2456400.5                 MPC
M 279.83330              (2000.0)            P               Q
n   0.85204651     Peri.  315.45562     +0.93494174     +0.35418710
a   1.1019465      Node    23.82430     -0.30940705     +0.84269512
e   0.4254593      Incl.    2.96122     -0.17364108     +0.40548296
P   1.16           H   2...                                  | Blobrana | 0 |  |  | 
		
			
			
				
				
					|   |   | Asteroid 2013 GM3
					
					
					
					
						
					
					
						
							(Preview) 
						
							
								Orbital elements:
2013 GM3                                                 Earth MOID = 0.0000 AU
Epoch 2013 Apr. 18.0 TT = JDT 2456400.5                 MPC
M 237.68058              (2000.0)            P               Q
n   1.28909893     Peri.  321.51895     +0.98354026     +0.18068901
a   0.8361391      Node    28.07116     -0.16566595     +0.90223849
e   0.2876208      Incl.    0.02613     -0.07213430     +0.39155740
P   0.76           H   26.0           G   0...                 | Blobrana | 4 |  |  | 
		
			
			
				
				
					|   |  | Asteroid 2006 NL
					
					
					
					
						
					
					
						
							(Preview) 
						
							
								The 300 - 680 metre wide asteroid 2006 NL will make a close pass (53.6 lunar distances, 0.1379 AU), travelling at 15.51 km/second, to the Earth-Moon system on the 11th July, 2013 @ 00:31 UT ±00:01.  See more The Lunar Distanc...               | Blobrana | 0 |  |  | 
		
			
			
				
				
					|   |  | Asteroid 2013 HV14
					
					
					
					
						
					
					
						
							(Preview) 
						
							
								Orbital elements:
2013 HV14                                                Earth MOID = 0.2878 AU
Epoch 2013 Apr. 18.0 TT = JDT 2456400.5                 MPC
M 349.10932              (2000.0)            P               Q
n   0.28842705     Peri.  207.84203     -0.60557636     +0.76847170
a   2.2687086      Node    26.57142     -0.61690705     -0.28925305
e   0.4443426      Incl.   27.52349     -0.50269569     -0.57077484
P   3.42           H   21.0...                               | Blobrana | 0 |  |  | 
		
			
			
				
				
					|   |  | Asteroid 2013 HU14
					
					
					
					
						
					
					
						
							(Preview) 
						
							
								Orbital elements:
2013 HU14                                                Earth MOID = 0.0402 AU
Epoch 2013 Apr. 18.0 TT = JDT 2456400.5                 MPC
M   7.71182              (2000.0)            P               Q
n   0.66703131     Peri.  164.34349     -0.95019226     +0.27763048
a   1.2972945      Node    32.85849     -0.30656697     -0.75074130
e   0.1987183      Incl.   15.13044     -0.05613701     -0.59942374
P   1.48           H   24.3           G   0...                    | Blobrana | 0 |  |  | 
		
			
			
				
				
					|   |  | Asteroid 2013 HT14
					
					
					
					
						
					
					
						
							(Preview) 
						
							
								Orbital elements:
2013 HT14                                                Earth MOID = 0.0021 AU
Epoch 2013 Apr. 18.0 TT = JDT 2456400.5                 MPC
M  15.18756              (2000.0)            P               Q
n   0.32590013     Peri.   87.57949     -0.47302976     -0.87955314
a   2.0912841      Node    30.81892     +0.76334628     -0.43820269
e   0.7190208      Incl.    5.74393     +0.43993784     -0.18537714
P   3.02           H   26.2           G   0....                    | Blobrana | 0 |  |  | 
		
			
			
				
				
					|   |  | Asteroid 2013 HL11
					
					
					
					
						
					
					
						
							(Preview) 
						
							
								Orbital elements:
2013 HL11                                                Earth MOID = 0.1603 AU
Epoch 2013 Apr. 18.0 TT = JDT 2456400.5                 MPC
M 315.11661              (2000.0)            P               Q
n   0.61778040     Peri.  244.40047     +0.03495463     +0.95738879
a   1.3653583      Node    31.97226     -0.60582441     +0.24843872
e   0.2292595      Incl.   32.77939     -0.79483015     -0.14725796
P   1.60           H   23.2...                                  | Blobrana | 0 |  |  | 
		
			
			
				
				
					|   |  | Asteroid 2013 HS11
					
					
					
					
						
					
					
						
							(Preview) 
						
							
								Orbital elements:
2013 HS11                                                Earth MOID = 0.0041 AU
Epoch 2013 Apr. 18.0 TT = JDT 2456400.5                 MPC
M  42.38785              (2000.0)            P               Q
n   0.61686036     Peri.  284.22159     -0.49599413     -0.86753319
a   1.3667156      Node   195.67749     +0.84019420     -0.46870121
e   0.4445445      Incl.    7.89013     +0.21923397     -0.16644924
P   1.60           H   22.7           G...                    | Blobrana | 0 |  |  | 
		
			
			
				
				
					|   |  | Asteroid 2013 HR11
					
					
					
					
						
					
					
						
							(Preview) 
						
							
								Orbital elements:
2013 HR11                                                Earth MOID = 0.2981 AU
Epoch 2013 Apr. 18.0 TT = JDT 2456400.5                 MPC
M  55.64062              (2000.0)            P               Q
n   0.34471077     Peri.    6.02896     -0.53724954     -0.83691807
a   2.0144948      Node   116.51138     +0.76886251     -0.53693632
e   0.3634129      Incl.    6.70964     +0.34671801     -0.10614863
P   2.86           H   19.5           G   0....                 | Blobrana | 0 |  |  | 
		
			
			
				
				
					|   |  | Asteroid 2013 HM11
					
					
					
					
						
					
					
						
							(Preview) 
						
							
								Orbital elements:
2013 HM11                                                Earth MOID = 0.1254 AU
Epoch 2013 Apr. 18.0 TT = JDT 2456400.5                 MPC
M 225.65995              (2000.0)            P               Q
n   1.16464805     Peri.  333.39263     +0.96577083     -0.03547002
a   0.8946907      Node    32.04773     +0.21682202     +0.65415618
e   0.3697581      Incl.   28.96394     -0.14239002     +0.75552735
P   0.85           H   23.1...                                  | Blobrana | 0 |  |  | 
		
			
			
				
				
					|   |  | Asteroid 2013 HP11
					
					
					
					
						
					
					
						
							(Preview) 
						
							
								Orbital elements:
2013 HP11                                                Earth MOID = 0.0307 AU
Epoch 2013 Apr. 18.0 TT = JDT 2456400.5                 MPC
M 352.00503              (2000.0)            P               Q
n   0.76576308     Peri.    8.46937     -0.79368625     +0.60729310
a   1.1832407      Node   209.01729     -0.56232436     -0.75465379
e   0.1248166      Incl.    4.19187     -0.23206345     -0.24838024
P   1.29           H   25.5           G   0...                    | Blobrana | 0 |  |  | 
		
			
			
				
				
					|   |  | Asteroid 2013 HN11
					
					
					
					
						
					
					
						
							(Preview) 
						
							
								Orbital elements:
2013 HN11                                                Earth MOID = 0.1533 AU
Epoch 2013 Apr. 18.0 TT = JDT 2456400.5                 MPC
M 359.75094              (2000.0)            P               Q
n   0.27560304     Peri.  144.02794     -0.91259193     +0.39803284
a   2.3385503      Node    59.68438     -0.39587339     -0.80294418
e   0.5105511      Incl.    6.21922     -0.10227526     -0.44367838
P   3.58           H   22.2           G...                       | Blobrana | 0 |  |  | 
		
			
			
				
				
					|   |  | Asteroid 2013 HK11
					
					
					
					
						
					
					
						
							(Preview) 
						
							
								Orbital elements:
2013 HK11                                                Earth MOID = 0.1924 AU
Epoch 2013 Apr. 18.0 TT = JDT 2456400.5                 MPC
M 347.84995              (2000.0)            P               Q
n   0.30185857     Peri.  281.72889     +0.95214231     +0.09085346
a   2.2009003      Node    73.59000     +0.05564455     +0.88732358
e   0.9368627      Incl.   17.71204     -0.30054734     +0.45210896
P   3.27           H   20.7...                                  | Blobrana | 0 |  |  | 
		
			
			
				
				
					|   |  | Asteroid 2012 XF55
					
					
					
					
						
					
					
						
							(Preview) 
						
							
								The 83 - 190 metre wide asteroid 2012 XF55 will make a close pass (32.7 lunar distances, 0.0841 AU), travelling at 7.33 km/second, to the Earth-Moon system on the 22nd April, 2013 @ 18:36 UT ±00:11.  See more The Lunar Distance (LD), the distance between Earth and the Moon, equals 384,401 km, (or 0.002...  | Blobrana | 0 |  |  |